START_TIME,STEP,MOV.,E45,t_acc.,ALAR?,t_acc.,A12,t_acc.,A24,t_acc.
1986-01-24 15:00:27.770 ,6,0,0.,4.8,156.,4.8,0.,4.8,0.,4.8
1986-01-24 15:00:32.570 ,6,0,0.,4.8,164.,4.8,0.,4.8,0.,4.8
1986-01-24 15:00:37.370 ,6,0,0.,4.8,148.,4.8,0.,4.8,0.,4.8
1986-01-24 15:00:42.170 ,6,0,0.,4.8,152.,4.8,0.,4.8,0.,4.8
1986-01-24 15:00:46.970 ,6,0,0.,4.8,156.,4.8,0.,4.8,0.,4.8
1986-01-24 15:00:51.770 ,6,0,0.,4.8,144.,4.8,0.,4.8,0.,4.8
1986-01-24 15:00:56.570 ,6,0,0.,4.8,164.,4.8,0.,4.8,0.,4.8
1986-01-24 15:01:01.370 ,6,0,0.,4.8,152.,4.8,0.,4.8,0.,4.8
1986-01-24 15:01:06.170 ,6,0,0.,4.8,152.,4.8,0.,4.8,0.,4.8
1986-01-24 15:01:10.970 ,6,0,0.,4.8,152.,4.8,0.,4.8,0.,4.8
1986-01-24 15:01:15.770 ,6,0,0.,4.8,148.,4.8,0.,4.8,0.,4.8
1986-01-24 15:01:20.570 ,6,0,0.,4.8,176.,4.8,0.,4.8,0.,4.8
1986-01-24 15:01:25.370 ,6,0,0.,4.8,156.,4.8,0.,4.8,0.,4.8
1986-01-24 15:01:30.170 ,6,0,0.,4.8,144.,4.8,0.,4.8,0.,4.8
1986-01-24 15:01:34.970 ,6,0,,0,,0,,0,,0
1986-01-24 15:01:41.570 ,6,0,0.,4.8,116.,4.8,0.,4.8,0.,4.8
1986-01-24 15:01:46.370 ,6,0,0.,4.8,148.,4.8,0.,4.8,0.,4.8
1986-01-24 15:01:51.170 ,6,0,0.,4.8,160.,4.8,0.,4.8,0.,4.8
1986-01-24 15:01:55.970 ,6,0,0.,4.8,136.,4.8,0.,4.8,0.,4.8
1986-01-24 15:02:00.770 ,6,0,0.,4.8,172.,4.8,0.,4.8,0.,4.8
1986-01-24 15:02:03.770 ,6,0,0.,4.8,156.,4.8,0.,4.8,0.,4.8
1986-01-24 15:02:08.570 ,6,0,0.,4.8,140.,4.8,0.,4.8,0.,4.8
1986-01-24 15:02:13.370 ,6,0,0.,4.8,128.,4.8,0.,4.8,0.,4.8
1986-01-24 15:02:18.170 ,6,0,0.,4.8,128.,4.8,0.,4.8,0.,4.8
1986-01-24 15:02:22.970 ,6,0,0.,4.8,152.,4.8,0.,4.8,0.,4.8
1986-01-24 15:02:33.770 ,6,0,,0,,0,,0,,0
1986-01-24 15:02:38.570 ,6,0,0.,4.8,176.,4.8,0.,4.8,0.,4.8
1986-01-24 15:02:43.370 ,6,0,0.,4.8,144.,4.8,0.,4.8,0.,4.8
1986-01-24 15:02:48.170 ,6,0,0.,4.8,144.,4.8,0.,4.8,0.,4.8
1986-01-24 15:02:52.970 ,6,0,0.,4.8,156.,4.8,0.,4.8,0.,4.8
1986-01-24 15:02:51.770 ,6,0,0.,4.8,144.,4.8,0.,4.8,0.,4.8
1986-01-24 15:02:56.570 ,6,0,0.,4.8,108.,4.8,0.,4.8,0.,4.8
1986-01-24 15:03:01.370 ,6,0,0.,4.8,144.,4.8,0.,4.8,0.,4.8
1986-01-24 15:03:06.170 ,6,0,0.,4.8,132.,4.8,0.,4.8,0.,4.8
1986-01-24 15:03:10.970 ,6,0,,0,,0,,0,,0
1986-01-24 15:03:17.570 ,6,0,0.,4.8,144.,4.8,0.,4.8,0.,4.8
1986-01-24 15:03:22.370 ,6,0,0.,4.8,156.,4.8,0.,4.8,0.,4.8
1986-01-24 15:03:27.170 ,6,0,0.,4.8,140.,4.8,0.,4.8,0.,4.8
1986-01-24 15:03:31.970 ,6,0,0.,4.8,132.,4.8,0.,4.8,0.,4.8
1986-01-24 15:03:36.770 ,6,0,0.,4.8,152.,4.8,0.,4.8,0.,4.8
1986-01-24 15:03:39.770 ,6,0,0.,4.8,144.,4.8,0.,4.8,0.,4.8
1986-01-24 15:03:44.570 ,6,0,0.,4.8,148.,4.8,0.,4.8,0.,4.8
1986-01-24 15:03:49.370 ,6,0,0.,4.8,136.,4.8,0.,4.8,0.,4.8
1986-01-24 15:03:54.170 ,6,0,0.,4.8,180.,4.8,0.,4.8,0.,4.8
1986-01-24 15:03:58.970 ,6,0,0.,4.8,128.,4.8,0.,4.8,0.,4.8
1986-01-24 15:04:09.770 ,6,0,,0,,0,,0,,0
1986-01-24 15:04:14.570 ,6,0,0.,4.8,124.,4.8,0.,4.8,0.,4.8
1986-01-24 15:04:19.370 ,6,0,0.,4.8,126.,4.8,0.,4.8,0.,4.8
1986-01-24 15:04:24.170 ,6,0,0.,4.8,152.,4.8,0.,4.8,0.,4.8
1986-01-24 15:04:28.970 ,6,0,0.,4.8,156.,4.8,0.,4.8,0.,4.8
1986-01-24 15:04:27.770 ,6,0,0.,4.8,126.,4.8,0.,4.8,0.,4.8
1986-01-24 15:04:32.570 ,6,0,0.,4.8,144.,4.8,0.,4.8,0.,4.8
1986-01-24 15:04:37.370 ,6,0,0.,4.8,152.,4.8,0.,4.8,0.,4.8
1986-01-24 15:04:42.170 ,6,0,0.,4.8,112.,4.8,0.,4.8,0.,4.8
1986-01-24 15:04:46.970 ,6,0,,0,,0,,0,,0
1986-01-24 15:04:53.570 ,6,0,0.,4.8,140.,4.8,0.,4.8,0.,4.8
1986-01-24 15:04:58.370 ,6,0,0.,4.8,144.,4.8,0.,4.8,0.,4.8
1986-01-24 15:05:03.170 ,6,0,0.,4.8,144.,4.8,0.,4.8,0.,4.8
1986-01-24 15:05:07.970 ,6,0,0.,4.8,136.,4.8,0.,4.8,0.,4.8
1986-01-24 15:05:12.770 ,6,0,0.,4.8,140.,4.8,0.,4.8,0.,4.8
1986-01-24 15:05:15.770 ,6,0,0.,4.8,156.,4.8,0.,4.8,0.,4.8
1986-01-24 15:05:20.570 ,6,0,0.,4.8,136.,4.8,0.,4.8,0.,4.8
1986-01-24 15:05:25.370 ,6,0,0.,4.8,128.,4.8,0.,4.8,0.,4.8
1986-01-24 15:05:30.170 ,6,0,0.,4.8,114.,4.8,0.,4.8,0.,4.8
1986-01-24 15:05:34.970 ,6,0,0.,4.8,148.,4.8,0.,4.8,0.,4.8
1986-01-24 15:05:45.770 ,6,0,,0,,0,,0,,0
1986-01-24 15:05:50.570 ,6,0,0.,4.8,148.,4.8,0.,4.8,0.,4.8
1986-01-24 15:05:55.370 ,6,0,0.,4.8,136.,4.8,0.,4.8,0.,4.8
1986-01-24 15:06:00.170 ,6,0,0.,4.8,128.,4.8,0.,4.8,0.,4.8
1986-01-24 15:06:04.970 ,6,0,0.,4.8,128.,4.8,0.,4.8,0.,4.8
1986-01-24 15:06:03.770 ,6,0,0.,4.8,128.,4.8,0.,4.8,0.,4.8
1986-01-24 15:06:08.570 ,6,0,0.,4.8,136.,4.8,0.,4.8,0.,4.8
1986-01-24 15:06:13.370 ,6,0,0.,4.8,124.,4.8,0.,4.8,0.,4.8
1986-01-24 15:06:18.170 ,6,0,0.,4.8,122.,4.8,0.,4.8,0.,4.8
1986-01-24 15:06:22.970 ,6,0,,0,,0,,0,,0
1986-01-24 15:06:29.570 ,6,0,0.,4.8,140.,4.8,0.,4.8,0.,4.8
1986-01-24 15:06:34.370 ,6,0,0.,4.8,128.,4.8,0.,4.8,0.,4.8
1986-01-24 15:06:39.170 ,6,0,0.,4.8,132.,4.8,0.,4.8,0.,4.8
1986-01-24 15:06:43.970 ,6,0,0.,4.8,110.,4.8,0.,4.8,0.,4.8
1986-01-24 15:06:48.770 ,6,0,0.,4.8,136.,4.8,0.,4.8,0.,4.8
1986-01-24 15:06:51.770 ,6,0,0.,4.8,136.,4.8,0.,4.8,0.,4.8
1986-01-24 15:06:56.570 ,6,0,0.,4.8,132.,4.8,0.,4.8,0.,4.8
1986-01-24 15:07:01.370 ,6,0,0.,4.8,124.,4.8,0.,4.8,0.,4.8
1986-01-24 15:07:06.170 ,6,0,0.,4.8,128.,4.8,0.,4.8,0.,4.8
1986-01-24 15:07:10.970 ,6,0,0.,4.8,144.,4.8,0.,4.8,0.,4.8
1986-01-24 15:07:25.370 ,6,0,,0,,0,,0,,0
1986-01-24 15:07:30.170 ,6,0,,0,,0,,0,,0
1986-01-24 15:07:34.970 ,6,0,0.,4.8,120.,4.8,0.,4.8,0.,4.8
1986-01-24 15:07:39.770 ,6,0,0.,4.8,128.,4.8,0.,4.8,0.,4.8
1986-01-24 15:07:44.570 ,6,0,0.,4.8,126.,4.8,0.,4.8,0.,4.8
1986-01-24 15:07:39.770 ,6,0,0.,4.8,110.,4.8,1.,4.8,0.,4.8
1986-01-24 15:07:44.570 ,6,0,0.,4.8,120.,4.8,0.,4.8,0.,4.8
1986-01-24 15:07:49.370 ,6,0,0.,4.8,118.,4.8,0.,4.8,0.,4.8
1986-01-24 15:07:54.170 ,6,0,0.,4.8,114.,4.8,0.,4.8,0.,4.8
1986-01-24 15:07:58.970 ,6,0,0.,4.8,128.,4.8,0.,4.8,0.,4.8
1986-01-24 15:08:03.770 ,6,0,0.,4.8,118.,4.8,0.,4.8,0.,4.8
1986-01-24 15:08:08.570 ,6,0,0.,4.8,132.,4.8,0.,4.8,0.,4.8
1986-01-24 15:08:13.370 ,6,0,0.,4.8,120.,4.8,1.,4.8,0.,4.8
1986-01-24 15:08:18.170 ,6,0,0.,4.8,110.,4.8,0.,4.8,0.,4.8
1986-01-24 15:08:22.970 ,6,0,0.,4.8,128.,4.8,0.,4.8,0.,4.8
1986-01-24 15:08:27.770 ,6,0,0.,4.8,114.,4.8,0.,4.8,0.,4.8
1986-01-24 15:08:32.570 ,6,0,0.,4.8,120.,4.8,0.,4.8,0.,4.8
1986-01-24 15:08:37.370 ,6,0,0.,4.8,108.,4.8,0.,4.8,0.,4.8
1986-01-24 15:08:42.170 ,6,0,0.,4.8,116.,4.8,0.,4.8,0.,4.8
1986-01-24 15:08:46.970 ,6,0,0.,4.8,120.,4.8,0.,4.8,0.,4.8
1986-01-24 15:08:51.770 ,5,1,0.,4.8,78.,4.8,0.,4.8,0.,4.8
1986-01-24 15:08:56.570 ,5,1,0.,4.8,66.,4.8,0.,4.8,0.,4.8
1986-01-24 15:09:01.370 ,5,1,0.,4.8,82.,4.8,0.,4.8,0.,4.8
1986-01-24 15:09:06.170 ,5,1,0.,4.8,108.,4.8,0.,4.8,0.,4.8
1986-01-24 15:09:10.970 ,5,1,0.,4.8,106.,4.8,0.,4.8,0.,4.8
1986-01-24 15:09:15.770 ,1,1,0.,4.8,62.,4.8,0.,4.8,0.,4.8
1986-01-24 15:09:20.570 ,1,1,0.,4.8,40.,4.8,0.,4.8,0.,4.8
1986-01-24 15:09:25.370 ,1,1,0.,4.8,38.,4.8,0.,4.8,0.,4.8
1986-01-24 15:09:30.170 ,1,1,0.,4.8,68.,4.8,0.,4.8,0.,4.8
1986-01-24 15:09:34.970 ,1,1,0.,4.8,72.,4.8,0.,4.8,0.,4.8
1986-01-24 15:09:39.770 ,2,1,0.,4.8,51.,4.8,0.,4.8,0.,4.8
1986-01-24 15:09:44.570 ,2,1,0.,4.8,46.,4.8,0.,4.8,0.,4.8
1986-01-24 15:09:49.370 ,2,1,0.,4.8,66.,4.8,0.,4.8,0.,4.8
1986-01-24 15:09:54.170 ,2,1,0.,4.8,60.,4.8,0.,4.8,0.,4.8
1986-01-24 15:09:58.970 ,2,1,0.,4.8,80.,4.8,0.,4.8,0.,4.8
1986-01-24 15:10:03.770 ,6,1,0.,4.8,61.,4.8,0.,4.8,0.,4.8
1986-01-24 15:10:08.570 ,6,1,0.,4.8,37.,4.8,0.,4.8,0.,4.8
1986-01-24 15:10:13.370 ,6,1,0.,4.8,64.,4.8,0.,4.8,0.,4.8
1986-01-24 15:10:18.170 ,6,1,0.,4.8,88.,4.8,0.,4.8,0.,4.8
1986-01-24 15:10:22.970 ,6,1,,0,,0,,0,,0
1986-01-24 15:11:01.370 ,6,0,,0,,0,,0,,0
1986-01-24 15:11:06.170 ,6,0,,0,,0,,0,,0
1986-01-24 15:11:10.970 ,6,0,0.,4.8,126.,4.8,0.,4.8,0.,4.8
1986-01-24 15:11:15.770 ,6,0,0.,4.8,106.,4.8,0.,4.8,0.,4.8
1986-01-24 15:11:20.570 ,6,0,,0,,0,,0,,0
1986-01-24 15:11:31.970 ,6,0,,0,,0,,0,,0
1986-01-24 15:11:36.770 ,6,0,,0,,0,,0,,0
1986-01-24 15:11:41.570 ,6,0,,0,,0,,0,,0
1986-01-24 15:11:46.370 ,6,0,0.,4.8,120.,4.8,0.,4.8,0.,4.8
1986-01-24 15:11:51.170 ,6,0,0.,4.8,124.,4.8,0.,4.8,0.,4.8
1986-01-24 15:11:39.770 ,6,0,0.,4.8,98.,4.8,0.,4.8,0.,4.8
1986-01-24 15:11:44.570 ,6,0,0.,4.8,96.,4.8,0.,4.8,0.,4.8
1986-01-24 15:11:49.370 ,6,0,0.,4.8,104.,4.8,0.,4.8,0.,4.8
1986-01-24 15:11:54.170 ,6,0,0.,4.8,110.,4.8,0.,4.8,0.,4.8
1986-01-24 15:11:58.970 ,6,0,0.,4.8,80.,4.8,0.,4.8,0.,4.8
1986-01-24 15:12:03.770 ,6,0,0.,4.8,136.,4.8,0.,4.8,0.,4.8
1986-01-24 15:12:08.570 ,6,0,0.,4.8,132.,4.8,0.,4.8,0.,4.8
1986-01-24 15:12:13.370 ,6,0,0.,4.8,104.,4.8,0.,4.8,0.,4.8
1986-01-24 15:12:18.170 ,6,0,0.,4.8,100.,4.8,0.,4.8,0.,4.8
1986-01-24 15:12:22.970 ,6,0,0.,4.8,102.,4.8,0.,4.8,0.,4.8
1986-01-24 15:12:27.770 ,6,0,0.,4.8,96.,4.8,1.,4.8,0.,4.8
1986-01-24 15:12:32.570 ,6,0,0.,4.8,110.,4.8,0.,4.8,0.,4.8
1986-01-24 15:12:37.370 ,6,0,0.,4.8,110.,4.8,0.,4.8,0.,4.8
1986-01-24 15:12:42.170 ,6,0,0.,4.8,108.,4.8,0.,4.8,0.,4.8
1986-01-24 15:12:46.970 ,6,0,0.,4.8,90.,4.8,0.,4.8,0.,4.8
1986-01-24 15:12:51.770 ,6,0,0.,4.8,92.,4.8,0.,4.8,0.,4.8
1986-01-24 15:12:56.570 ,6,0,0.,4.8,118.,4.8,0.,4.8,0.,4.8
1986-01-24 15:13:01.370 ,6,0,0.,4.8,84.,4.8,0.,4.8,0.,4.8
1986-01-24 15:13:06.170 ,6,0,0.,4.8,114.,4.8,0.,4.8,0.,4.8
1986-01-24 15:13:10.970 ,6,0,,0,,0,,0,,0
1986-01-24 15:13:15.770 ,6,0,0.,4.8,118.,4.8,0.,4.8,0.,4.8
1986-01-24 15:13:20.570 ,6,0,0.,4.8,98.,4.8,0.,4.8,0.,4.8
1986-01-24 15:13:25.370 ,6,0,,0,,0,,0,,0
1986-01-24 15:13:30.170 ,6,0,0.,4.8,108.,4.8,0.,4.8,0.,4.8
1986-01-24 15:13:34.970 ,6,0,0.,4.8,82.,4.8,0.,4.8,0.,4.8
1986-01-24 15:13:39.770 ,6,0,0.,4.8,94.,4.8,0.,4.8,0.,4.8
1986-01-24 15:13:44.570 ,6,0,0.,4.8,100.,4.8,0.,4.8,0.,4.8
1986-01-24 15:13:49.370 ,6,0,0.,4.8,102.,4.8,0.,4.8,0.,4.8
1986-01-24 15:13:54.170 ,6,0,0.,4.8,100.,4.8,0.,4.8,0.,4.8
1986-01-24 15:13:58.970 ,6,0,0.,4.8,114.,4.8,0.,4.8,0.,4.8
1986-01-24 15:14:03.770 ,6,0,0.,4.8,118.,4.8,0.,4.8,0.,4.8
1986-01-24 15:14:08.570 ,6,0,0.,4.8,102.,4.8,0.,4.8,0.,4.8
1986-01-24 15:14:13.370 ,6,0,0.,4.8,106.,4.8,0.,4.8,0.,4.8
1986-01-24 15:14:18.170 ,6,0,0.,4.8,104.,4.8,0.,4.8,0.,4.8
1986-01-24 15:14:22.970 ,6,0,0.,4.8,92.,4.8,0.,4.8,0.,4.8
1986-01-24 15:14:30.170 ,6,0,,0,,0,,0,,0
1986-01-24 15:14:34.970 ,6,0,0.,4.8,94.,4.8,0.,4.8,0.,4.8
1986-01-24 15:14:39.770 ,6,0,0.,4.8,92.,4.8,0.,4.8,0.,4.8
1986-01-24 15:14:44.570 ,6,0,,0,,0,,0,,0
1986-01-24 15:14:49.370 ,6,0,,0,,0,,0,,0
1986-01-24 15:14:51.770 ,6,0,,0,,0,,0,,0
1986-01-24 15:14:56.570 ,6,0,,0,,0,,0,,0
1986-01-24 15:15:01.370 ,6,0,,0,,0,,0,,0
1986-01-24 15:15:06.170 ,6,0,,0,,0,,0,,0
1986-01-24 15:15:10.970 ,6,0,,0,,0,,0,,0
1986-01-24 15:15:15.770 ,6,0,0.,4.8,94.,4.8,0.,4.8,0.,4.8
1986-01-24 15:15:20.570 ,6,0,0.,4.8,86.,4.8,0.,4.8,0.,4.8
1986-01-24 15:15:25.370 ,6,0,0.,4.8,108.,4.8,0.,4.8,0.,4.8
1986-01-24 15:15:30.170 ,6,0,0.,4.8,96.,4.8,0.,4.8,0.,4.8
1986-01-24 15:15:34.970 ,6,0,0.,4.8,88.,4.8,0.,4.8,0.,4.8
1986-01-24 15:15:39.770 ,6,0,0.,4.8,110.,4.8,0.,4.8,0.,4.8
1986-01-24 15:15:44.570 ,6,0,0.,4.8,94.,4.8,0.,4.8,0.,4.8
1986-01-24 15:15:49.370 ,6,0,0.,4.8,74.,4.8,0.,4.8,0.,4.8
1986-01-24 15:15:54.170 ,6,0,0.,4.8,96.,4.8,0.,4.8,0.,4.8
1986-01-24 15:15:58.970 ,6,0,0.,4.8,90.,4.8,0.,4.8,0.,4.8
1986-01-24 15:16:03.770 ,6,0,0.,4.8,110.,4.8,0.,4.8,0.,4.8
1986-01-24 15:16:08.570 ,6,0,0.,4.8,90.,4.8,0.,4.8,0.,4.8
1986-01-24 15:16:13.370 ,6,0,0.,4.8,84.,4.8,0.,4.8,0.,4.8
1986-01-24 15:16:18.170 ,6,0,,0,,0,,0,,0
1986-01-24 15:16:22.970 ,6,0,,0,,0,,0,,0
1986-01-24 15:16:27.770 ,6,0,,0,,0,,0,,0
1986-01-24 15:16:32.570 ,6,0,,0,,0,,0,,0
1986-01-24 15:16:37.370 ,6,0,,0,,0,,0,,0
1986-01-24 15:16:42.170 ,6,0,,0,,0,,0,,0
1986-01-24 15:16:46.970 ,6,0,,0,,0,,0,,0
1986-01-24 15:16:51.770 ,6,0,0.,4.8,94.,4.8,0.,4.8,0.,4.8
1986-01-24 15:16:56.570 ,6,0,0.,4.8,78.,4.8,0.,4.8,0.,4.8
1986-01-24 15:17:01.370 ,6,0,,0,,0,,0,,0
1986-01-24 15:17:06.170 ,6,0,,0,,0,,0,,0
1986-01-24 15:17:10.970 ,6,0,0.,4.8,84.,4.8,1.,4.8,0.,4.8
1986-01-24 15:17:15.770 ,6,0,0.,4.8,88.,4.8,0.,4.8,0.,4.8
1986-01-24 15:17:20.570 ,6,0,0.,4.8,80.,4.8,0.,4.8,0.,4.8
1986-01-24 15:17:25.370 ,6,0,0.,4.8,88.,4.8,0.,4.8,0.,4.8
1986-01-24 15:17:30.170 ,6,0,0.,4.8,76.,4.8,0.,4.8,0.,4.8
1986-01-24 15:17:34.970 ,6,0,,0,,0,,0,,0
1986-01-24 15:17:39.770 ,6,0,0.,4.8,66.,4.8,0.,4.8,0.,4.8
1986-01-24 15:17:44.570 ,6,0,0.,4.8,90.,4.8,0.,4.8,0.,4.8
1986-01-24 15:17:49.370 ,6,0,0.,4.8,90.,4.8,0.,4.8,0.,4.8
1986-01-24 15:17:54.170 ,6,0,,0,,0,,0,,0
1986-01-24 15:17:58.970 ,6,0,0.,4.8,96.,4.8,0.,4.8,0.,4.8
1986-01-24 15:18:03.770 ,6,0,0.,4.8,90.,4.8,0.,4.8,0.,4.8
1986-01-24 15:18:08.570 ,6,0,,0,,0,,0,,0
1986-01-24 15:18:13.370 ,6,0,0.,4.8,80.,4.8,0.,4.8,0.,4.8
1986-01-24 15:18:18.170 ,6,0,0.,4.8,84.,4.8,0.,4.8,0.,4.8
1986-01-24 15:18:22.970 ,6,0,0.,4.8,66.,4.8,0.,4.8,0.,4.8
1986-01-24 15:18:27.770 ,6,0,0.,4.8,80.,4.8,0.,4.8,0.,4.8
1986-01-24 15:18:32.570 ,6,0,0.,4.8,82.,4.8,0.,4.8,0.,4.8
1986-01-24 15:18:37.370 ,6,0,0.,4.8,82.,4.8,0.,4.8,0.,4.8
1986-01-24 15:18:42.170 ,6,0,0.,4.8,92.,4.8,0.,4.8,0.,4.8
1986-01-24 15:18:46.970 ,6,0,0.,4.8,88.,4.8,0.,4.8,0.,4.8
1986-01-24 15:18:51.770 ,6,0,0.,4.8,64.,4.8,0.,4.8,0.,4.8
1986-01-24 15:18:56.570 ,6,0,,0,,0,,0,,0
1986-01-24 15:19:01.370 ,6,0,0.,4.8,80.,4.8,0.,4.8,0.,4.8
1986-01-24 15:19:06.170 ,6,0,,0,,0,,0,,0
1986-01-24 15:19:10.970 ,6,0,0.,4.8,84.,4.8,0.,4.8,0.,4.8
1986-01-24 15:19:15.770 ,6,0,,0,,0,,0,,0
1986-01-24 15:19:20.570 ,6,0,0.,4.8,68.,4.8,0.,4.8,0.,4.8
1986-01-24 15:19:25.370 ,6,0,0.,4.8,90.,4.8,0.,4.8,0.,4.8
1986-01-24 15:19:30.170 ,6,0,0.,4.8,86.,4.8,0.,4.8,0.,4.8
1986-01-24 15:19:34.970 ,6,0,,0,,0,,0,,0
1986-01-24 15:19:39.770 ,6,0,,0,,0,,0,,0
1986-01-24 15:19:44.570 ,6,0,,0,,0,,0,,0
1986-01-24 15:19:49.370 ,6,0,,0,,0,,0,,0
1986-01-24 15:19:54.170 ,6,0,,0,,0,,0,,0
1986-01-24 15:19:58.970 ,6,0,,0,,0,,0,,0
1986-01-24 15:20:03.770 ,6,0,0.,4.8,82.,4.8,0.,4.8,0.,4.8
1986-01-24 15:20:08.570 ,6,0,0.,4.8,80.,4.8,0.,4.8,0.,4.8
1986-01-24 15:20:13.370 ,6,0,,0,,0,,0,,0
1986-01-24 15:20:18.170 ,6,0,,0,,0,,0,,0
1986-01-24 15:20:22.970 ,6,0,0.,4.8,78.,4.8,0.,4.8,0.,4.8
1986-01-24 15:20:27.770 ,6,0,0.,4.8,88.,4.8,0.,4.8,0.,4.8
1986-01-24 15:20:32.570 ,6,0,0.,4.8,64.,4.8,0.,4.8,0.,4.8
1986-01-24 15:20:37.370 ,6,0,0.,4.8,82.,4.8,0.,4.8,0.,4.8
1986-01-24 15:20:42.170 ,6,0,0.,4.8,59.,4.8,0.,4.8,0.,4.8
1986-01-24 15:20:46.970 ,6,0,0.,4.8,74.,4.8,0.,4.8,0.,4.8
1986-01-24 15:20:51.770 ,5,1,0.,4.8,50.,4.8,0.,4.8,0.,4.8
1986-01-24 15:20:56.570 ,5,1,0.,4.8,46.,4.8,0.,4.8,0.,4.8
1986-01-24 15:21:01.370 ,5,1,0.,4.8,66.,4.8,0.,4.8,0.,4.8
1986-01-24 15:21:06.170 ,5,1,0.,4.8,74.,4.8,0.,4.8,0.,4.8
1986-01-24 15:21:10.970 ,5,1,0.,4.8,68.,4.8,0.,4.8,0.,4.8
1986-01-24 15:21:15.770 ,1,1,0.,4.8,47.,4.8,0.,4.8,0.,4.8
1986-01-24 15:21:20.570 ,1,1,0.,4.8,32.,4.8,0.,4.8,0.,4.8
1986-01-24 15:21:25.370 ,1,1,0.,4.8,39.,4.8,0.,4.8,0.,4.8
1986-01-24 15:21:30.170 ,1,1,0.,4.8,52.,4.8,0.,4.8,0.,4.8
1986-01-24 15:21:34.970 ,1,1,0.,4.8,53.,4.8,0.,4.8,0.,4.8
1986-01-24 15:21:39.770 ,2,1,0.,4.8,56.,4.8,1.,4.8,0.,4.8
1986-01-24 15:21:44.570 ,2,1,0.,4.8,40.,4.8,0.,4.8,0.,4.8
1986-01-24 15:21:49.370 ,2,1,0.,4.8,45.,4.8,0.,4.8,0.,4.8
1986-01-24 15:21:54.170 ,2,1,0.,4.8,53.,4.8,1.,4.8,0.,4.8
1986-01-24 15:21:58.970 ,2,1,0.,4.8,58.,4.8,0.,4.8,0.,4.8
1986-01-24 15:22:03.770 ,6,1,0.,4.8,40.,4.8,0.,4.8,0.,4.8
1986-01-24 15:22:08.570 ,6,1,0.,4.8,42.,4.8,0.,4.8,0.,4.8
1986-01-24 15:22:13.370 ,6,1,0.,4.8,49.,4.8,0.,4.8,0.,4.8
1986-01-24 15:22:18.170 ,6,1,0.,4.8,57.,4.8,0.,4.8,0.,4.8
1986-01-24 15:22:22.970 ,6,1,0.,4.8,70.,4.8,0.,4.8,0.,4.8
1986-01-24 15:22:27.770 ,6,0,0.,4.8,76.,4.8,0.,4.8,0.,4.8
1986-01-24 15:22:32.570 ,6,0,0.,4.8,68.,4.8,0.,4.8,0.,4.8
1986-01-24 15:22:37.370 ,6,0,0.,4.8,90.,4.8,0.,4.8,0.,4.8
1986-01-24 15:22:42.170 ,6,0,0.,4.8,55.,4.8,0.,4.8,0.,4.8
1986-01-24 15:22:46.970 ,6,0,0.,4.8,63.,4.8,0.,4.8,0.,4.8
1986-01-24 15:22:51.770 ,6,0,0.,4.8,80.,4.8,0.,4.8,0.,4.8
1986-01-24 15:22:56.570 ,6,0,0.,4.8,78.,4.8,0.,4.8,0.,4.8
1986-01-24 15:23:01.370 ,6,0,0.,4.8,58.,4.8,0.,4.8,0.,4.8
1986-01-24 15:23:06.170 ,6,0,0.,4.8,66.,4.8,1.,4.8,0.,4.8
1986-01-24 15:23:10.970 ,6,0,0.,4.8,53.,4.8,0.,4.8,0.,4.8
1986-01-24 15:23:15.770 ,6,0,0.,4.8,59.,4.8,0.,4.8,0.,4.8
1986-01-24 15:23:20.570 ,6,0,0.,4.8,64.,4.8,1.,4.8,0.,4.8
1986-01-24 15:23:25.370 ,6,0,0.,4.8,60.,4.8,0.,4.8,0.,4.8
1986-01-24 15:23:30.170 ,6,0,0.,4.8,66.,4.8,0.,4.8,0.,4.8
1986-01-24 15:23:34.970 ,6,0,0.,4.8,78.,4.8,0.,4.8,0.,4.8
1986-01-24 15:23:39.770 ,6,0,0.,4.8,64.,4.8,0.,4.8,0.,4.8
1986-01-24 15:23:44.570 ,6,0,0.,4.8,63.,4.8,0.,4.8,0.,4.8
1986-01-24 15:23:49.370 ,6,0,0.,4.8,51.,4.8,0.,4.8,0.,4.8
1986-01-24 15:23:54.170 ,6,0,0.,4.8,68.,4.8,0.,4.8,0.,4.8
1986-01-24 15:23:58.970 ,6,0,0.,4.8,51.,4.8,0.,4.8,0.,4.8
1986-01-24 15:24:03.770 ,6,0,0.,4.8,66.,4.8,0.,4.8,0.,4.8
1986-01-24 15:24:08.570 ,6,0,0.,4.8,50.,4.8,0.,4.8,0.,4.8
1986-01-24 15:24:13.370 ,6,0,0.,4.8,68.,4.8,0.,4.8,0.,4.8
1986-01-24 15:24:18.170 ,6,0,0.,4.8,63.,4.8,0.,4.8,0.,4.8
1986-01-24 15:24:22.970 ,6,0,0.,4.8,56.,4.8,1.,4.8,0.,4.8
1986-01-24 15:24:27.770 ,6,0,0.,4.8,78.,4.8,0.,4.8,0.,4.8
1986-01-24 15:24:32.570 ,6,0,0.,4.8,39.,4.8,0.,4.8,0.,4.8
1986-01-24 15:24:37.370 ,6,0,0.,4.8,55.,4.8,0.,4.8,0.,4.8
1986-01-24 15:24:42.170 ,6,0,0.,4.8,54.,4.8,0.,4.8,0.,4.8
1986-01-24 15:24:46.970 ,6,0,0.,4.8,59.,4.8,1.,4.8,0.,4.8
1986-01-24 15:24:51.770 ,6,0,0.,4.8,64.,4.8,0.,4.8,0.,4.8
1986-01-24 15:24:56.570 ,6,0,0.,4.8,68.,4.8,0.,4.8,0.,4.8
1986-01-24 15:25:01.370 ,6,0,0.,4.8,63.,4.8,0.,4.8,0.,4.8
1986-01-24 15:25:06.170 ,6,0,0.,4.8,63.,4.8,0.,4.8,0.,4.8
1986-01-24 15:25:10.970 ,6,0,0.,4.8,72.,4.8,0.,4.8,0.,4.8
1986-01-24 15:25:15.770 ,6,0,0.,4.8,61.,4.8,0.,4.8,0.,4.8
1986-01-24 15:25:20.570 ,6,0,0.,4.8,55.,4.8,0.,4.8,0.,4.8
1986-01-24 15:25:25.370 ,6,0,0.,4.8,66.,4.8,0.,4.8,0.,4.8
1986-01-24 15:25:30.170 ,6,0,0.,4.8,53.,4.8,0.,4.8,0.,4.8
1986-01-24 15:25:34.970 ,6,0,0.,4.8,60.,4.8,1.,4.8,0.,4.8
1986-01-24 15:25:39.770 ,6,0,0.,4.8,51.,4.8,0.,4.8,0.,4.8
1986-01-24 15:25:44.570 ,6,0,0.,4.8,66.,4.8,0.,4.8,0.,4.8
1986-01-24 15:25:49.370 ,6,0,0.,4.8,57.,4.8,0.,4.8,0.,4.8
1986-01-24 15:25:54.170 ,6,0,0.,4.8,56.,4.8,0.,4.8,0.,4.8
1986-01-24 15:25:58.970 ,6,0,0.,4.8,50.,4.8,0.,4.8,0.,4.8
1986-01-24 15:26:03.770 ,6,0,0.,4.8,49.,4.8,0.,4.8,0.,4.8
1986-01-24 15:26:08.570 ,6,0,0.,4.8,70.,4.8,0.,4.8,0.,4.8
1986-01-24 15:26:13.370 ,6,0,0.,4.8,56.,4.8,0.,4.8,0.,4.8
1986-01-24 15:26:18.170 ,6,0,0.,4.8,57.,4.8,0.,4.8,0.,4.8
1986-01-24 15:26:22.970 ,6,0,0.,4.8,63.,4.8,0.,4.8,0.,4.8
1986-01-24 15:26:27.770 ,6,0,0.,4.8,53.,4.8,0.,4.8,0.,4.8
1986-01-24 15:26:32.570 ,6,0,0.,4.8,52.,4.8,0.,4.8,0.,4.8
1986-01-24 15:26:37.370 ,6,0,0.,4.8,53.,4.8,0.,4.8,0.,4.8
1986-01-24 15:26:42.170 ,6,0,0.,4.8,56.,4.8,0.,4.8,0.,4.8
1986-01-24 15:26:46.970 ,6,0,0.,4.8,60.,4.8,0.,4.8,0.,4.8
1986-01-24 15:26:51.770 ,6,0,0.,4.8,52.,4.8,1.,4.8,0.,4.8
1986-01-24 15:26:56.570 ,6,0,0.,4.8,51.,4.8,0.,4.8,0.,4.8
1986-01-24 15:27:01.370 ,6,0,0.,4.8,57.,4.8,0.,4.8,0.,4.8
1986-01-24 15:27:06.170 ,6,0,0.,4.8,68.,4.8,0.,4.8,0.,4.8
1986-01-24 15:27:10.970 ,6,0,0.,4.8,49.,4.8,0.,4.8,0.,4.8
1986-01-24 15:27:15.770 ,6,0,0.,4.8,60.,4.8,0.,4.8,0.,4.8
1986-01-24 15:27:20.570 ,6,0,0.,4.8,48.,4.8,0.,4.8,0.,4.8
1986-01-24 15:27:25.370 ,6,0,0.,4.8,52.,4.8,0.,4.8,0.,4.8
1986-01-24 15:27:30.170 ,6,0,0.,4.8,68.,4.8,0.,4.8,0.,4.8
1986-01-24 15:27:34.970 ,6,0,0.,4.8,60.,4.8,0.,4.8,0.,4.8
1986-01-24 15:27:39.770 ,6,0,0.,4.8,50.,4.8,0.,4.8,0.,4.8
1986-01-24 15:27:44.570 ,6,0,0.,4.8,60.,4.8,0.,4.8,0.,4.8
1986-01-24 15:27:49.370 ,6,0,0.,4.8,55.,4.8,0.,4.8,0.,4.8
1986-01-24 15:27:54.170 ,6,0,0.,4.8,53.,4.8,0.,4.8,0.,4.8
1986-01-24 15:27:58.970 ,6,0,0.,4.8,48.,4.8,0.,4.8,0.,4.8
1986-01-24 15:28:03.770 ,6,0,0.,4.8,61.,4.8,0.,4.8,0.,4.8
1986-01-24 15:28:08.570 ,6,0,0.,4.8,59.,4.8,0.,4.8,0.,4.8
1986-01-24 15:28:13.370 ,6,0,0.,4.8,51.,4.8,0.,4.8,0.,4.8
1986-01-24 15:28:18.170 ,6,0,0.,4.8,47.,4.8,0.,4.8,0.,4.8
1986-01-24 15:28:22.970 ,6,0,0.,4.8,64.,4.8,0.,4.8,0.,4.8
1986-01-24 15:28:27.770 ,6,0,0.,4.8,61.,4.8,0.,4.8,0.,4.8
1986-01-24 15:28:32.570 ,6,0,0.,4.8,61.,4.8,0.,4.8,0.,4.8
1986-01-24 15:28:37.370 ,6,0,0.,4.8,48.,4.8,0.,4.8,0.,4.8
1986-01-24 15:28:42.170 ,6,0,0.,4.8,52.,4.8,0.,4.8,0.,4.8
1986-01-24 15:28:46.970 ,6,0,0.,4.8,63.,4.8,0.,4.8,0.,4.8
1986-01-24 15:28:51.770 ,6,0,0.,4.8,52.,4.8,0.,4.8,0.,4.8
1986-01-24 15:28:56.570 ,6,0,0.,4.8,42.,4.8,0.,4.8,0.,4.8
1986-01-24 15:29:01.370 ,6,0,0.,4.8,63.,4.8,0.,4.8,0.,4.8
1986-01-24 15:29:06.170 ,6,0,0.,4.8,47.,4.8,0.,4.8,0.,4.8
1986-01-24 15:29:10.970 ,6,0,0.,4.8,70.,4.8,0.,4.8,0.,4.8
1986-01-24 15:29:15.770 ,6,0,0.,4.8,49.,4.8,0.,4.8,0.,4.8
1986-01-24 15:29:20.570 ,6,0,0.,4.8,74.,4.8,0.,4.8,0.,4.8
1986-01-24 15:29:25.370 ,6,0,0.,4.8,45.,4.8,0.,4.8,0.,4.8
1986-01-24 15:29:30.170 ,6,0,0.,4.8,74.,4.8,0.,4.8,0.,4.8
1986-01-24 15:29:34.970 ,6,0,0.,4.8,56.,4.8,0.,4.8,0.,4.8
1986-01-24 15:29:39.770 ,6,0,0.,4.8,50.,4.8,0.,4.8,0.,4.8
1986-01-24 15:29:44.570 ,6,0,0.,4.8,64.,4.8,2.,4.8,0.,4.8
1986-01-24 15:29:49.370 ,6,0,0.,4.8,49.,4.8,0.,4.8,0.,4.8
1986-01-24 15:29:54.170 ,6,0,0.,4.8,41.,4.8,0.,4.8,0.,4.8
1986-01-24 15:29:58.970 ,6,0,0.,4.8,50.,4.8,0.,4.8,0.,4.8
1986-01-24 15:30:03.770 ,6,0,0.,4.8,56.,4.8,0.,4.8,0.,4.8
1986-01-24 15:30:08.570 ,6,0,0.,4.8,58.,4.8,0.,4.8,0.,4.8
1986-01-24 15:30:13.370 ,6,0,0.,4.8,59.,4.8,0.,4.8,0.,4.8
1986-01-24 15:30:18.170 ,6,0,0.,4.8,48.,4.8,0.,4.8,0.,4.8
1986-01-24 15:30:22.970 ,6,0,0.,4.8,44.,4.8,1.,4.8,0.,4.8
1986-01-24 15:30:27.770 ,6,0,0.,4.8,41.,4.8,0.,4.8,0.,4.8
1986-01-24 15:30:32.570 ,6,0,0.,4.8,63.,4.8,1.,4.8,0.,4.8
1986-01-24 15:30:37.370 ,6,0,0.,4.8,50.,4.8,0.,4.8,0.,4.8
1986-01-24 15:30:42.170 ,6,0,0.,4.8,44.,4.8,0.,4.8,0.,4.8
1986-01-24 15:30:46.970 ,6,0,0.,4.8,48.,4.8,0.,4.8,0.,4.8
1986-01-24 15:30:51.770 ,6,0,0.,4.8,57.,4.8,0.,4.8,0.,4.8
1986-01-24 15:30:56.570 ,6,0,0.,4.8,48.,4.8,0.,4.8,0.,4.8
1986-01-24 15:31:01.370 ,6,0,0.,4.8,60.,4.8,0.,4.8,0.,4.8
1986-01-24 15:31:06.170 ,6,0,0.,4.8,52.,4.8,0.,4.8,0.,4.8
1986-01-24 15:31:10.970 ,6,0,0.,4.8,44.,4.8,0.,4.8,0.,4.8
1986-01-24 15:31:15.770 ,6,0,0.,4.8,56.,4.8,0.,4.8,0.,4.8
1986-01-24 15:31:20.570 ,6,0,0.,4.8,62.,4.8,0.,4.8,0.,4.8
1986-01-24 15:31:25.370 ,6,0,0.,4.8,42.,4.8,0.,4.8,0.,4.8
1986-01-24 15:31:30.170 ,6,0,0.,4.8,55.,4.8,0.,4.8,0.,4.8
1986-01-24 15:31:34.970 ,6,0,0.,4.8,54.,4.8,0.,4.8,0.,4.8
1986-01-24 15:31:39.770 ,6,0,0.,4.8,46.,4.8,0.,4.8,0.,4.8
1986-01-24 15:31:44.570 ,6,0,0.,4.8,55.,4.8,0.,4.8,0.,4.8
1986-01-24 15:31:49.370 ,6,0,0.,4.8,63.,4.8,0.,4.8,0.,4.8
1986-01-24 15:31:54.170 ,6,0,0.,4.8,44.,4.8,0.,4.8,0.,4.8
1986-01-24 15:31:58.970 ,6,0,0.,4.8,51.,4.8,0.,4.8,0.,4.8
1986-01-24 15:32:03.770 ,6,0,0.,4.8,55.,4.8,0.,4.8,0.,4.8
1986-01-24 15:32:08.570 ,6,0,0.,4.8,50.,4.8,0.,4.8,0.,4.8
1986-01-24 15:32:13.370 ,6,0,0.,4.8,63.,4.8,0.,4.8,0.,4.8
1986-01-24 15:32:18.170 ,6,0,0.,4.8,38.,4.8,0.,4.8,0.,4.8
1986-01-24 15:32:22.970 ,6,0,0.,4.8,58.,4.8,0.,4.8,0.,4.8
1986-01-24 15:32:27.770 ,6,0,0.,4.8,57.,4.8,0.,4.8,0.,4.8
1986-01-24 15:32:32.570 ,6,0,0.,4.8,60.,4.8,0.,4.8,0.,4.8
1986-01-24 15:32:37.370 ,6,0,0.,4.8,52.,4.8,0.,4.8,0.,4.8
1986-01-24 15:32:42.170 ,6,0,0.,4.8,45.,4.8,0.,4.8,0.,4.8
1986-01-24 15:32:46.970 ,6,0,0.,4.8,56.,4.8,0.,4.8,0.,4.8
1986-01-24 15:32:51.770 ,5,1,0.,4.8,46.,4.8,1.,4.8,0.,4.8
1986-01-24 15:32:56.570 ,5,1,0.,4.8,40.,4.8,0.,4.8,0.,4.8
1986-01-24 15:33:01.370 ,5,1,0.,4.8,48.,4.8,0.,4.8,0.,4.8
1986-01-24 15:33:06.170 ,5,1,0.,4.8,40.,4.8,0.,4.8,0.,4.8
1986-01-24 15:33:10.970 ,5,1,0.,4.8,52.,4.8,0.,4.8,0.,4.8
1986-01-24 15:33:15.770 ,1,1,0.,4.8,40.,4.8,0.,4.8,0.,4.8
1986-01-24 15:33:20.570 ,1,1,0.,4.8,31.,4.8,0.,4.8,0.,4.8
1986-01-24 15:33:25.370 ,1,1,0.,4.8,35.,4.8,0.,4.8,0.,4.8
1986-01-24 15:33:30.170 ,1,1,0.,4.8,30.,4.8,0.,4.8,0.,4.8
1986-01-24 15:33:34.970 ,1,1,0.,4.8,39.,4.8,0.,4.8,0.,4.8
1986-01-24 15:33:39.770 ,2,1,0.,4.8,38.,4.8,0.,4.8,0.,4.8
1986-01-24 15:33:44.570 ,2,1,0.,4.8,35.,4.8,0.,4.8,0.,4.8
1986-01-24 15:33:49.370 ,2,1,0.,4.8,50.,4.8,0.,4.8,0.,4.8
1986-01-24 15:33:54.170 ,2,1,0.,4.8,46.,4.8,0.,4.8,0.,4.8
1986-01-24 15:33:58.970 ,2,1,0.,4.8,44.,4.8,0.,4.8,0.,4.8
1986-01-24 15:34:03.770 ,6,1,0.,4.8,33.,4.8,0.,4.8,0.,4.8
1986-01-24 15:34:08.570 ,6,1,0.,4.8,38.,4.8,0.,4.8,0.,4.8